Tracking 20093 objects as of 14-Dec-2019
HD Live streaming from Space Station
objects crossing your sky now

COSMOS 2251 DEB

Track COSMOS 2251 DEB now!
10-day predictions


NORAD ID: 35026
Int'l Code: 1993-036AGP
Perigee: 665.7 km
Apogee: 785.5 km
Inclination: 74.0 °
Period: 99.2 minutes
Semi major axis: 7096 km
RCS: 0.0075 m2 (small)
Launch date: June 16, 1993
Source: Commonwealth of Independent States (former USSR) (CIS)
Launch site: PLESETSK MISSILE AND SPACE COMPLEX (PKMTR)

Note: This is SATELLITE DEBRIS
aabbcc
Your satellite tracking list
Your tracking list is empty




NASA's NSSDC Master Catalog

Two Line Element Set (TLE):
1 35026U 93036AGP 19347.65845391 -.00000007 +00000-0 +53133-5 0  9990
2 35026 074.0457 128.5018 0084432 077.4158 293.5781 14.52197090563280
Source of the keplerian elements: AFSPC